When you browse on this site, cookies collect data to enhance your experience and personalize the content and advertising you see.
Visit our Privacy Policy to learn more. By continuing to use the site, you agree to this use of cookies and data.
  • In Czech Republic
  • List of Countries
  • For 7 days
  • Water Temperature
  • Satellite Maps
  • Weather Map
  • Weather Widgets
  • user-avatar
    Login

    Hourly Weather Aba-el-Baul

    Today, 20 June, Thursday

    Time Temperature Precipitation Wind Pressure Humidity
    00:00 +36°C° 0 mm 7 mps 745 mmHg 37%
    01:00 +35°C° 0 mm 7 mps 745 mmHg 39%
    02:00 +35°C° 0 mm 7 mps 745 mmHg 40%
    03:00 +35°C° 0 mm 8 mps 745 mmHg 41%
    04:00 +35°C° 0 mm 8 mps 745 mmHg 42%
    05:00 +35°C° 0 mm 8 mps 746 mmHg 42%
    06:00 +35°C° 0 mm 8 mps 746 mmHg 42%
    07:00 +39°C° 0 mm 9 mps 746 mmHg 34%
    08:00 +42°C° 0 mm 11 mps 747 mmHg 25%
    09:00 +45°C° 0 mm 13 mps 747 mmHg 17%
    10:00 +46°C° 0 mm 13 mps 747 mmHg 15%
    11:00 +46°C° 0 mm 13 mps 747 mmHg 13%
    12:00 +47°C° 0 mm 13 mps 746 mmHg 11%
    13:00 +47°C° 0 mm 13 mps 746 mmHg 11%
    14:00 +47°C° 0 mm 13 mps 745 mmHg 11%
    15:00 +46°C° 0 mm 12 mps 745 mmHg 11%
    16:00 +44°C° 0 mm 11 mps 745 mmHg 13%
    17:00 +43°C° 0 mm 10 mps 745 mmHg 15%
    18:00 +40°C° 0 mm 9 mps 745 mmHg 17%
    19:00 +39°C° 0 mm 7 mps 745 mmHg 22%
    20:00 +36°C° 0 mm 6 mps 745 mmHg 27%
    21:00 +35°C° 0 mm 5 mps 746 mmHg 32%
    22:00 +34°C° 0 mm 4 mps 746 mmHg 35%
    23:00 +34°C° 0 mm 4 mps 746 mmHg 38%

    Tomorrow, 21 June, Friday

    Time Temperature Precipitation Wind Pressure Humidity
    00:00 +33°C° 0 mm 4 mps 746 mmHg 41%
    01:00 +33°C° 0 mm 4 mps 745 mmHg 44%
    02:00 +33°C° 0 mm 4 mps 745 mmHg 47%
    03:00 +33°C° 0 mm 4 mps 745 mmHg 49%
    04:00 +33°C° 0 mm 5 mps 745 mmHg 45%
    05:00 +34°C° 0 mm 5 mps 746 mmHg 42%
    06:00 +34°C° 0 mm 6 mps 746 mmHg 38%
    07:00 +38°C° 0 mm 7 mps 747 mmHg 32%
    08:00 +42°C° 0 mm 9 mps 747 mmHg 26%
    09:00 +45°C° 0 mm 10 mps 747 mmHg 20%
    10:00 +45°C° 0 mm 10 mps 747 mmHg 18%
    11:00 +47°C° 0 mm 10 mps 747 mmHg 17%
    12:00 +48°C° 0 mm 10 mps 746 mmHg 15%
    13:00 +48°C° 0 mm 10 mps 746 mmHg 15%
    14:00 +47°C° 0 mm 10 mps 746 mmHg 15%
    15:00 +47°C° 0 mm 10 mps 745 mmHg 15%
    16:00 +44°C° 0 mm 9 mps 745 mmHg 16%
    17:00 +43°C° 0 mm 8 mps 745 mmHg 18%
    18:00 +41°C° 0 mm 7 mps 745 mmHg 19%
    19:00 +39°C° 0 mm 6 mps 746 mmHg 24%
    20:00 +36°C° 0 mm 4 mps 746 mmHg 28%
    21:00 +34°C° 0 mm 3 mps 746 mmHg 33%
    22:00 +34°C° 0 mm 3 mps 746 mmHg 36%
    23:00 +33°C° 0 mm 3 mps 746 mmHg 39%

    Day after tomorrow, 22 June, Saturday

    Time Temperature Precipitation Wind Pressure Humidity
    00:00 +31°C° 0 mm 2 mps 746 mmHg 43%
    01:00 +31°C° 0 mm 3 mps 746 mmHg 44%
    02:00 +31°C° 0 mm 3 mps 745 mmHg 45%
    03:00 +30°C° 0 mm 3 mps 745 mmHg 47%
    04:00 +31°C° 0 mm 3 mps 745 mmHg 43%
    05:00 +33°C° 0 mm 3 mps 746 mmHg 40%
    06:00 +33°C° 0 mm 3 mps 746 mmHg 36%
    07:00 +36°C° 0 mm 4 mps 747 mmHg 30%
    08:00 +38°C° 0 mm 4 mps 747 mmHg 23%
    09:00 +42°C° 0 mm 5 mps 747 mmHg 16%
    10:00 +43°C° 0 mm 4 mps 747 mmHg 15%
    11:00 +44°C° 0 mm 3 mps 747 mmHg 14%
    12:00 +45°C° 0 mm 2 mps 747 mmHg 12%
    13:00 +45°C° 0 mm 3 mps 746 mmHg 13%
    14:00 +45°C° 0 mm 4 mps 746 mmHg 15%
    15:00 +46°C° 0 mm 5 mps 745 mmHg 16%
    16:00 +44°C° 0 mm 4 mps 745 mmHg 19%
    17:00 +42°C° 0 mm 4 mps 746 mmHg 23%
    18:00 +39°C° 0 mm 3 mps 746 mmHg 27%
    19:00 +38°C° 0 mm 3 mps 746 mmHg 31%
    20:00 +37°C° 0 mm 3 mps 747 mmHg 35%
    21:00 +35°C° 0 mm 3 mps 747 mmHg 39%
    22:00 +35°C° 0 mm 3 mps 747 mmHg 41%
    23:00 +34°C° 0 mm 3 mps 746 mmHg 42%

    23 June, Sunday

    Time Temperature Precipitation Wind Pressure Humidity
    00:00 +34°C° 0 mm 2 mps 746 mmHg 43%
    01:00 +32°C° 0 mm 2 mps 746 mmHg 44%
    02:00 +32°C° 0 mm 2 mps 746 mmHg 44%
    03:00 +31°C° 0 mm 1 mps 745 mmHg 45%
    04:00 +32°C° 0 mm 1 mps 746 mmHg 44%
    05:00 +32°C° 0 mm 1 mps 746 mmHg 42%
    06:00 +33°C° 0 mm 1 mps 747 mmHg 41%
    07:00 +35°C° 0 mm 1 mps 747 mmHg 36%
    08:00 +38°C° 0 mm 2 mps 747 mmHg 31%
    09:00 +40°C° 0 mm 2 mps 747 mmHg 25%
    10:00 +42°C° 0 mm 2 mps 747 mmHg 23%
    11:00 +45°C° 0 mm 2 mps 747 mmHg 20%
    12:00 +46°C° 0 mm 2 mps 747 mmHg 18%
    13:00 +46°C° 0 mm 3 mps 746 mmHg 19%
    14:00 +47°C° 0 mm 4 mps 746 mmHg 19%
    15:00 +47°C° 0 mm 5 mps 746 mmHg 20%
    16:00 +46°C° 0 mm 5 mps 746 mmHg 23%
    17:00 +43°C° 0 mm 5 mps 746 mmHg 26%
    18:00 +42°C° 0 mm 4 mps 746 mmHg 30%
    19:00 +41°C° 0 mm 4 mps 746 mmHg 32%
    20:00 +38°C° 0 mm 4 mps 746 mmHg 35%
    21:00 +37°C° 0 mm 3 mps 747 mmHg 37%
    22:00 +37°C° 0 mm 3 mps 746 mmHg 36%
    23:00 +37°C° 0 mm 3 mps 746 mmHg 35%

    24 June, Monday

    Time Temperature Precipitation Wind Pressure Humidity
    00:00 +37°C° 0 mm 3 mps 746 mmHg 35%
    01:00 +37°C° 0 mm 3 mps 746 mmHg 33%
    02:00 +37°C° 0 mm 3 mps 745 mmHg 31%
    03:00 +37°C° 0 mm 3 mps 745 mmHg 29%
    04:00 +37°C° 0 mm 3 mps 745 mmHg 30%
    05:00 +37°C° 0 mm 3 mps 746 mmHg 30%
    06:00 +37°C° 0 mm 3 mps 746 mmHg 31%
    07:00 +40°C° 0 mm 4 mps 746 mmHg 26%
    08:00 +43°C° 0 mm 4 mps 747 mmHg 21%
    09:00 +47°C° 0 mm 5 mps 747 mmHg 16%
    10:00 +48°C° 0 mm 5 mps 747 mmHg 15%
    11:00 +49°C° 0 mm 6 mps 747 mmHg 13%
    12:00 +51°C° 0 mm 6 mps 746 mmHg 12%
    13:00 +51°C° 0 mm 6 mps 746 mmHg 12%
    14:00 +51°C° 0 mm 6 mps 746 mmHg 12%
    15:00 +50°C° 0 mm 5 mps 745 mmHg 11%
    16:00 +49°C° 0 mm 5 mps 745 mmHg 12%
    17:00 +47°C° 0 mm 4 mps 745 mmHg 13%
    18:00 +45°C° 0 mm 4 mps 745 mmHg 14%
    19:00 +43°C° 0 mm 3 mps 745 mmHg 15%
    20:00 +40°C° 0 mm 2 mps 745 mmHg 17%
    21:00 +39°C° 0 mm 1 mps 745 mmHg 18%
    22:00 +39°C° 0 mm 2 mps 745 mmHg 18%
    23:00 +39°C° 0 mm 2 mps 745 mmHg 18%

    25 June, Tuesday

    Time Temperature Precipitation Wind Pressure Humidity
    00:00 +39°C° 0 mm 3 mps 745 mmHg 18%
    01:00 +38°C° 0 mm 3 mps 745 mmHg 20%
    02:00 +37°C° 0 mm 2 mps 745 mmHg 22%
    03:00 +36°C° 0 mm 2 mps 745 mmHg 24%
    04:00 +37°C° 0 mm 2 mps 745 mmHg 24%
    05:00 +37°C° 0 mm 2 mps 746 mmHg 24%
    06:00 +37°C° 0 mm 2 mps 746 mmHg 24%
    07:00 +40°C° 0 mm 3 mps 746 mmHg 20%
    08:00 +44°C° 0 mm 4 mps 746 mmHg 15%
    09:00 +48°C° 0 mm 5 mps 747 mmHg 11%
    10:00 +51°C° 0 mm 6 mps 746 mmHg 10%
    11:00 +52°C° 0 mm 6 mps 746 mmHg 8%
    12:00 +55°C° 0 mm 7 mps 745 mmHg 7%
    13:00 +55°C° 0 mm 8 mps 745 mmHg 7%
    14:00 +55°C° 0 mm 8 mps 745 mmHg 7%
    15:00 +55°C° 0 mm 8 mps 744 mmHg 7%
    16:00 +52°C° 0 mm 7 mps 744 mmHg 8%
    17:00 +49°C° 0 mm 5 mps 744 mmHg 9%
    18:00 +48°C° 0 mm 4 mps 744 mmHg 10%
    19:00 +45°C° 0 mm 4 mps 744 mmHg 11%
    20:00 +43°C° 0 mm 3 mps 745 mmHg 13%
    21:00 +42°C° 0 mm 3 mps 745 mmHg 14%
    22:00 +39°C° 0 mm 3 mps 745 mmHg 21%
    23:00 +38°C° 0 mm 3 mps 744 mmHg 29%
    Show more